IGO107 VAPO-VOBL

Flight info

Callsign IGO107
Flight time N/A
Altitude 37000
Route AVKOR2A AVKOR W128 EPKOS Q9 RIKBU RIKBU7E
Aircraft A21N/M-SDE3FGHIRWY/LB1

Departure

Time 2026-05-07 17:33
Airport Pune International Airport (VAPO)

Arrival

Time N/A
Airport Kempegowda International Airport Bengaluru (VOBL)
Time Latitude Longitude Altitude Speed Heading
2026-05-07 17:12 18.57996 73.90920 1922 ft 0 kts 187°
2026-05-07 17:22 18.58005 73.90922 1922 ft 2 kts 192°
2026-05-07 17:22 18.58020 73.90925 1921 ft 2 kts 185°
2026-05-07 17:22 18.58035 73.90923 1921 ft 2 kts 145°
2026-05-07 17:22 18.58044 73.90910 1920 ft 2 kts 101°
2026-05-07 17:23 18.58044 73.90895 1920 ft 2 kts 92°
2026-05-07 17:23 18.58045 73.90887 1920 ft 0 kts 98°
2026-05-07 17:27 18.58044 73.90894 1920 ft 0 kts 98°
2026-05-07 17:27 18.58041 73.90918 1921 ft 5 kts 96°
2026-05-07 17:27 18.58037 73.90975 1923 ft 9 kts 84°
2026-05-07 17:27 18.58087 73.91023 1924 ft 10 kts 14°
2026-05-07 17:28 18.58122 73.91084 1925 ft 10 kts 85°
2026-05-07 17:28 18.58118 73.91166 1928 ft 11 kts 94°
2026-05-07 17:28 18.58112 73.91259 1932 ft 13 kts 93°
2026-05-07 17:28 18.58105 73.91372 1935 ft 17 kts 94°
2026-05-07 17:29 18.58096 73.91517 1939 ft 21 kts 93°
2026-05-07 17:29 18.58086 73.91691 1941 ft 25 kts 93°
2026-05-07 17:29 18.58075 73.91875 1943 ft 24 kts 94°
2026-05-07 17:29 18.58063 73.92059 1941 ft 25 kts 94°
2026-05-07 17:30 18.58052 73.92254 1937 ft 26 kts 93°
2026-05-07 17:30 18.58037 73.92451 1934 ft 26 kts 94°
2026-05-07 17:30 18.58023 73.92648 1930 ft 26 kts 94°
2026-05-07 17:30 18.58011 73.92838 1927 ft 25 kts 94°
2026-05-07 17:31 18.58005 73.92953 1925 ft 10 kts 92°
2026-05-07 17:31 18.58042 73.93006 1924 ft 10 kts
2026-05-07 17:31 18.58116 73.93008 1924 ft 10 kts
2026-05-07 17:31 18.58163 73.92965 1926 ft 8 kts 278°
2026-05-07 17:32 18.58168 73.92899 1929 ft 12 kts 274°
2026-05-07 17:32 18.58187 73.92563 1934 ft 83 kts 274°
2026-05-07 17:32 18.58241 73.91695 1945 ft 149 kts 274°
2026-05-07 17:32 18.58323 73.90414 2030 ft 193 kts 274°
2026-05-07 17:33 18.58413 73.89020 2895 ft 185 kts 274°
2026-05-07 17:33 18.58494 73.87685 3749 ft 182 kts 274°
2026-05-07 17:33 18.58573 73.86269 4074 ft 201 kts 274°
2026-05-07 17:33 18.58675 73.84729 4455 ft 217 kts 275°
2026-05-07 17:34 18.58803 73.83076 4876 ft 232 kts 275°
2026-05-07 17:34 18.58836 73.81286 5255 ft 254 kts 259°
2026-05-07 17:34 18.58007 73.79583 5658 ft 274 kts 225°
2026-05-07 17:34 18.56313 73.78583 6340 ft 282 kts 192°
2026-05-07 17:35 18.54362 73.78605 7157 ft 284 kts 163°
2026-05-07 17:35 18.52645 73.79659 7815 ft 289 kts 131°
2026-05-07 17:35 18.51599 73.81432 8785 ft 282 kts 115°
2026-05-07 17:35 18.50595 73.83285 9430 ft 292 kts 121°
2026-05-07 17:36 18.49466 73.85104 10177 ft 297 kts 123°
2026-05-07 17:36 18.48284 73.86972 10690 ft 311 kts 123°
2026-05-07 17:36 18.47039 73.88942 11045 ft 329 kts 123°
2026-05-07 17:36 18.45629 73.90974 11359 ft 349 kts 133°
2026-05-07 17:37 18.43786 73.92425 11631 ft 366 kts 153°
2026-05-07 17:37 18.41315 73.93231 11916 ft 384 kts 171°
2026-05-07 17:37 18.39505 73.93404 12118 ft 395 kts 176°
2026-05-07 17:38 18.33303 73.93761 12967 ft 419 kts 175°
2026-05-07 17:38 18.30652 73.93974 13573 ft 421 kts 174°